Location: Unspecified
(33.9239°N, 118.0544°W)
Time: 14:12:04
(UTC-08:00)

Cosmos 2058 - Visible Passes

Search period start: 18 January 2017 00:00
Search period end: 28 January 2017 00:00
Orbit: 563 x 587 km, 82.5° (Epoch: 17 January)

Date Brightness Start Highest point End Pass type
(mag) Time Alt. Az. Time Alt. Az. Time Alt. Az.
18 Jan 3.3 05:30:45 10° N 05:34:50 64° E 05:38:57 10° SSE visible
18 Jan 3.4 17:51:04 10° SSE 17:54:52 38° E 17:58:41 10° NNE visible
18 Jan 6.0 19:30:17 10° W 19:31:57 12° WNW 19:33:37 10° NW visible
19 Jan 2.8 05:34:10 10° N 05:38:19 90° SE 05:42:27 10° S visible
19 Jan 3.0 17:54:18 10° S 17:58:18 53° E 18:02:18 10° NNE visible
20 Jan 2.8 05:37:40 10° NNW 05:41:46 64° W 05:45:52 10° S visible
20 Jan 2.8 17:57:39 10° S 18:01:45 77° E 18:05:50 10° N visible
21 Jan 6.1 04:07:13 10° ENE 04:08:03 10° ENE 04:08:52 10° E visible
21 Jan 3.2 05:41:30 11° NNW 05:45:12 45° W 05:49:09 10° SSW visible
21 Jan 3.1 18:01:06 10° S 18:05:12 75° W 18:09:18 10° N visible
22 Jan 5.8 04:09:48 12° NE 04:11:38 15° ENE 04:13:57 10° ESE visible
22 Jan 3.6 05:46:07 17° NW 05:48:37 32° W 05:52:19 10° SSW visible
22 Jan 3.7 18:04:40 10° SSW 18:08:40 52° W 18:12:41 10° N visible
23 Jan 5.4 04:14:29 19° ENE 04:15:11 20° ENE 04:18:13 10° SE visible
23 Jan 4.0 05:50:48 20° WNW 05:52:01 23° W 05:55:20 10° SW visible
23 Jan 4.5 18:08:21 10° SSW 18:12:10 37° W 18:15:59 10° NNW visible
24 Jan 5.0 04:19:12 26° E 04:19:12 26° E 04:22:14 10° SE visible
24 Jan 4.4 05:55:31 17° W 05:55:31 17° W 05:58:09 10° SW visible
24 Jan 5.1 18:12:11 10° SW 18:15:40 27° WNW 18:19:11 10° NNW visible
25 Jan 4.9 04:23:58 25° SE 04:23:58 25° SE 04:26:05 10° SSE visible
25 Jan 5.0 06:00:17 11° WSW 06:00:17 11° WSW 06:00:35 10° WSW visible
25 Jan 5.6 18:16:10 10° SW 18:19:12 20° WNW 18:22:16 10° NNW visible
26 Jan 5.3 04:28:44 17° SSE 04:28:44 17° SSE 04:29:47 10° SSE visible
26 Jan 5.9 18:20:25 10° WSW 18:22:45 15° WNW 18:25:06 10° NW visible
27 Jan 6.2 18:25:22 10° W 18:26:20 11° WNW 18:27:18 10° WNW visible
